Erzurum, Turkey

12:17 AM +03 on October 19, 2017 (GMT +0300)
Erzurum

Weather History for LTCE - February, 2014

Change the Weather History Date:

Saturday, February 1, 2014

  Actual Average Record
Temperature  
Mean Temperature 18 °F -  
Max Temperature 24 °F 29 °F 44 °F (1999)
Min Temperature 10 °F 13 °F -25 °F (2008)
Degree Days  
Heating Degree Days 48    
Moisture  
Dew Point 14 °F    
Average Humidity 84    
Maximum Humidity 99    
Minimum Humidity 67    
Precipitation  
Precipitation 0.00 in 0.03 in - ()
Sea Level Pressure  
Sea Level Pressure 30.21 in    
Wind  
Wind Speed 5 mph ()    
Max Wind Speed 17 mph    
Max Gust Speed -    
Visibility 6.6 miles    
Events Snow    
Averages and records for this station are not official NWS values.
T = Trace of Precipitation, MM = Missing Value Source: Averaged Metar Reports

Daily Weather History Graph

Daily Weather History Graph

Search for Another Location

Airport or City:

Trip Planner

Search our weather history database for the weather conditions in past years. The results will help you decide how hot, cold, wet, or windy it might be!

Date:

Astronomy

Feb. 01, 2014 Rise Set
Actual Time 6:24 AM EET 4:34 PM EET
Civil Twilight 5:55 AM EET 5:02 PM EET
Nautical Twilight 5:23 AM EET 5:35 PM EET
Astronomical Twilight 4:51 AM EET 6:07 PM EET
Moon 6:59 AM EET (2/1) 6:43 PM EET (2/1)
Length of Visible Light 11h 07m
Length of Day
10h 10m
Waxing Crescent, 3% of the Moon is Illuminated
Feb 1
Waxing Crescent
Feb 6
First Quarter
Feb 15
Full
Feb 22
Last Quarter
Mar 1
New

Hourly Weather History & Observations

Time (EET) Temp. Windchill Dew Point Humidity Pressure Visibility Wind Dir Wind Speed Gust Speed Precip Events Conditions
12:20 AM 12.2 °F - 10.4 °F 92% 30.21 in - Variable 2.3 mph - N/A   Clear
12:50 AM 14.0 °F - 12.2 °F 93% 30.21 in - Variable 1.2 mph - N/A   Clear
1:20 AM 14.0 °F - 12.2 °F 93% 30.21 in - Variable 2.3 mph - N/A   Clear
1:50 AM 15.8 °F - 12.2 °F 86% 30.21 in - Variable 1.2 mph - N/A   Clear
2:00 AM 15 °F - 15 °F 97%  in 12 mi West 1.2 mph - -   Partly Cloudy
2:20 AM 15.8 °F - 12.2 °F 86% 30.21 in - North 1.2 mph - N/A   Clear
2:50 AM 14.0 °F 8.2 °F 12.2 °F 93% 30.21 in - North 3.5 mph - N/A   Clear
3:20 AM 14.0 °F - 12.2 °F 93% 30.21 in - Calm Calm - N/A   Clear
3:50 AM 15.8 °F - 12.2 °F 86% 30.21 in - Calm Calm - N/A   Clear
3:59 AM 15.8 °F - 12.2 °F 86% 30.21 in 6.2 mi Calm Calm - N/A Snow Light Snow
4:20 AM 15.8 °F - 14.0 °F 93% 30.18 in 6.2 mi Calm Calm - N/A Snow Light Snow
4:50 AM 15.8 °F - 14.0 °F 93% 30.18 in 4.3 mi West 2.3 mph - N/A Snow Light Snow
5:00 AM 15 °F - 15 °F 99%  in 4 mi West 2.3 mph - - Snow Light Snow
5:20 AM 15.8 °F - 14.0 °F 93% 30.18 in 6.2 mi WSW 2.3 mph - N/A   Scattered Clouds
5:50 AM 15.8 °F 8.6 °F 14.0 °F 93% 30.18 in 6.2 mi WSW 4.6 mph - N/A   Mostly Cloudy
6:20 AM 15.8 °F - 14.0 °F 93% 30.18 in 5.0 mi West 2.3 mph - N/A   Mostly Cloudy
6:50 AM 15.8 °F - 14.0 °F 93% 30.18 in 4.3 mi Calm Calm - N/A   Mostly Cloudy
7:16 AM 17.6 °F - 14.0 °F 86% 30.21 in 4.3 mi Calm Calm - N/A Snow Light Snow
7:20 AM 17.6 °F - 15.8 °F 93% 30.21 in 4.3 mi Calm Calm - N/A Snow Light Snow
7:47 AM 15.8 °F - 14.0 °F 93% 30.21 in 5.0 mi SE 1.2 mph - N/A   Mostly Cloudy
7:50 AM 17.6 °F - 15.8 °F 93% 30.21 in 5.0 mi Variable 1.2 mph - N/A   Mostly Cloudy
8:00 AM 17 °F - 15 °F 89%  in 5 mi SSE 1.2 mph - - Snow Light Snow
8:20 AM 21.2 °F - 15.8 °F 80% 30.21 in 4.3 mi Variable 1.2 mph - N/A   Mostly Cloudy
8:50 AM 17.6 °F 12.3 °F 15.8 °F 93% 30.21 in 5.0 mi WSW 3.5 mph - N/A   Scattered Clouds
9:20 AM 19.4 °F 12.8 °F 15.8 °F 86% 30.21 in 5.6 mi North 4.6 mph - N/A   Scattered Clouds
9:50 AM 21.2 °F 12.6 °F 17.6 °F 86% 30.21 in 5.6 mi NE 6.9 mph - N/A   Mostly Cloudy
10:20 AM 23.0 °F 12.4 °F 17.6 °F 80% 30.21 in 6.2 mi East 10.4 mph - N/A   Mostly Cloudy
10:50 AM 21.2 °F 8.9 °F 17.6 °F 86% 30.21 in 6.2 mi East 12.7 mph - N/A   Mostly Cloudy
11:00 AM 21 °F - 18 °F 81%  in 12 mi East 12.7 mph - -   Partly Cloudy
11:20 AM 23.0 °F 11.1 °F 17.6 °F 80% 30.21 in 6.2 mi East 12.7 mph - N/A   Mostly Cloudy
11:50 AM 23.0 °F 11.1 °F 17.6 °F 80% 30.21 in 6.2 mi East 12.7 mph - N/A   Mostly Cloudy
12:20 PM 23.0 °F 10.6 °F 19.4 °F 86% 30.21 in 6.2 mi East 13.8 mph - N/A   Mostly Cloudy
12:50 PM 24.8 °F 13.4 °F 17.6 °F 74% 30.21 in 6.2 mi East 12.7 mph - N/A   Mostly Cloudy
1:20 PM 23.0 °F 9.2 °F 17.6 °F 80% 30.21 in 6.2 mi East 17.3 mph - N/A   Mostly Cloudy
1:50 PM 24.8 °F 12.9 °F 17.6 °F 74% 30.21 in 6.2 mi East 13.8 mph - N/A   Mostly Cloudy
2:00 PM 24 °F - 18 °F 67%  in 12 mi East 13.8 mph - -   Partly Cloudy
2:20 PM 24.8 °F 13.4 °F 17.6 °F 74% 30.18 in 6.2 mi East 12.7 mph - N/A   Scattered Clouds
2:50 PM 23.0 °F 10.1 °F 17.6 °F 80% 30.21 in 6.2 mi East 15.0 mph - N/A   Scattered Clouds
3:20 PM 23.0 °F 11.7 °F 15.8 °F 74% 30.21 in 6.2 mi East 11.5 mph - N/A   Scattered Clouds
3:50 PM 23.0 °F 13.1 °F 15.8 °F 74% 30.21 in 6.2 mi East 9.2 mph - N/A   Scattered Clouds
4:20 PM 21.2 °F 9.5 °F 15.8 °F 80% 30.21 in 6.2 mi East 11.5 mph - N/A   Partly Cloudy
4:50 PM 19.4 °F 6.0 °F 14.0 °F 80% 30.21 in 6.2 mi East 13.8 mph - N/A   Partly Cloudy
5:00 PM 20 °F - 15 °F 73%  in 12 mi East 13.8 mph - -   Scattered Clouds
5:20 PM 19.4 °F 7.2 °F 14.0 °F 80% 30.21 in - East 11.5 mph - N/A   Clear
5:50 PM 19.4 °F 7.2 °F 14.0 °F 80% 30.24 in - East 11.5 mph - N/A   Clear
6:20 PM 19.4 °F 6.6 °F 14.0 °F 80% 30.21 in - East 12.7 mph - N/A   Clear
6:50 PM 17.6 °F 4.3 °F 12.2 °F 79% 30.21 in - East 12.7 mph - N/A   Clear
7:20 PM 17.6 °F 5.0 °F 12.2 °F 79% 30.24 in - East 11.5 mph - N/A   Clear
7:50 PM 17.6 °F 5.7 °F 10.4 °F 73% 30.24 in - East 10.4 mph - N/A   Clear
8:00 PM 17 °F - 13 °F 77%  in 12 mi East 10.4 mph - -  
8:20 PM 17.6 °F 5.7 °F 10.4 °F 73% 30.24 in - East 10.4 mph - N/A   Clear
8:50 PM 15.8 °F 2.1 °F 10.4 °F 79% 30.24 in - East 12.7 mph - N/A   Clear
9:20 PM 15.8 °F 2.7 °F 10.4 °F 79% 30.24 in - East 11.5 mph - N/A   Clear
9:50 PM 14.0 °F 1.2 °F 8.6 °F 79% 30.24 in - East 10.4 mph - N/A   Clear
10:20 PM 14.0 °F 0.5 °F 8.6 °F 79% 30.24 in - East 11.5 mph - N/A   Clear
10:50 PM 12.2 °F -2.5 °F 8.6 °F 85% 30.24 in - East 12.7 mph - N/A   Clear
11:00 PM 12 °F - 8 °F 78%  in 12 mi East 12.7 mph - -  
11:20 PM 12.2 °F -1.8 °F 6.8 °F 79% 30.24 in - East 11.5 mph - N/A   Clear
11:50 PM 10.4 °F -0.4 °F 6.8 °F 85% 30.21 in - East 6.9 mph - N/A   Clear